This is the latest recevied weather packets stored in our database for station/object K6CEG. If no packets are shown the sender has not sent any weather packets the latest 10 day(s).
| Time | Temp. | Humidity | Pressure | Rain* | Wind** | Luminosity | Snow |
|---|---|---|---|---|---|---|---|
| 1788244732 | 18.89° C | 73% | 1016.4 hPa | 0 mm | - | 0 W/m² | - |
| 1788244428 | 18.89° C | 73% | 1016.3 hPa | 0 mm | - | 0 W/m² | - |
| 1788244124 | 18.89° C | 72% | 1016.1 hPa | 0 mm | - | 0 W/m² | - |
| 1788243820 | 19.44° C | 72% | 1016.2 hPa | 0 mm | - | 0 W/m² | - |
| 1788243515 | 19.44° C | 71% | 1016 hPa | 0 mm | - | 0 W/m² | - |
| 1788243210 | 19.44° C | 71% | 1016 hPa | 0 mm | - | 0 W/m² | - |
| 1788242906 | 19.44° C | 70% | 1016 hPa | 0 mm | - | 0 W/m² | - |
| 1788242602 | 19.44° C | 70% | 1015.9 hPa | 0 mm | - | 0 W/m² | - |
| 1788242301 | 19.44° C | 70% | 1016.1 hPa | 0 mm | - | 0 W/m² | - |
| 1788241998 | 20° C | 70% | 1015.9 hPa | 0 mm | - | 0 W/m² | - |
| 1788241694 | 20° C | 70% | 1015.9 hPa | 0 mm | - | 0 W/m² | - |
| 1788241391 | 20° C | 69% | 1016.1 hPa | 0 mm | - | 0 W/m² | - |
| 1788241086 | 20° C | 68% | 1016.1 hPa | 0 mm | - | 0 W/m² | - |
| 1788240781 | 20° C | 68% | 1016 hPa | 0 mm | - | 0 W/m² | - |
| 1788240485 | 20.56° C | 67% | 1015.9 hPa | 0 mm | - | 0 W/m² | - |
| 1788240172 | 20.56° C | 66% | 1015.8 hPa | 0 mm | - | 0 W/m² | - |
| 1788239871 | 20.56° C | 64% | 1015.8 hPa | 0 mm | - | 0 W/m² | - |
| 1788239581 | 20.56° C | 64% | 1016.1 hPa | 0 mm | - | 0 W/m² | - |
| 1788239261 | 20.56° C | 65% | 1015.9 hPa | 0 mm | - | 0 W/m² | - |
| 1788238957 | 20.56° C | 68% | 1016.1 hPa | 0 mm | - | 0 W/m² | - |
| 1788238668 | 21.11° C | 66% | 1015.7 hPa | 0 mm | - | 0 W/m² | - |
| 1788238347 | 21.11° C | 62% | 1015.6 hPa | 0 mm | - | 0 W/m² | - |
| 1788238042 | 21.11° C | 62% | 1015.4 hPa | 0 mm | - | 0 W/m² | - |
| 1788237738 | 21.11° C | 62% | 1015.7 hPa | 0 mm | - | 0 W/m² | - |
| 1788237434 | 21.11° C | 61% | 1015.9 hPa | 0 mm | - | 0 W/m² | - |
* Rain latest hour (hover to see other rain measurements)
** Current wind speed in m/s (hover to see current wind gust speed)